Other Surface Observations
Issued by NWS Charleston, SC

Home | Current Version | Previous Version | Text Only | Print | Product List | Glossary On
Versions: 1 2 3 4 5 6 7 8 9 10 11 12 13 14 15 16 17 18 19 20 21 22 23 24 25 26 27 28 29 30 31 32 33 34 35 36 37 38 39 40 41 42 43 44 45 46 47 48 49 50
582
SXUS52 KCHS 042313
OSOCHS

MARINE OBSERVATIONS
NATIONAL WEATHER SERVICE CHARLESTON SC
700 PM EDT WED MAY 04 2016

...DOWNTOWN CHARLESTON AND HARBOR...

CITY           SKY/WX    TMP DP  RH WIND       PRES   REMARKS
WATERFRONT PRK   N/A     78  48  34 W7        29.59S

...LAKE MOULTRIE...

CITY           SKY/WX    TMP DP  RH WIND       PRES   REMARKS
PINOPOLIS        N/A     79  52  38 W12       29.52F

...LAKE AND SUPPLEMENTAL COASTAL OBSERVATIONS...

STATION/POSITION TIME  TEMP    WIND        PRES    WAVE   SWELL
                       AIR SEA DIR/SP/G            HT/PER HT/PER/DIR
                 (UTC) (F)     (DEG/KT/KT) (MB)    (FT/S) (FT/S/D)
FORT PULASKI     2200   76 75              1004.0F
SAPELO ISLAND    2200   78     230/ 10     1004.0S
WINYAH BAY       2145   78     280/  9     1001.0
LAKE MURRAY      2200   71     260/ 13/ 19 1003.4S
ACE BASIN NERRS  NOT AVBL


...C-MAN AND BUOY OBSERVATIONS...

STATION/POSITION TIME  TEMP    WIND        PRES    WAVE   SWELL
                       AIR SEA DIR/SP/G            HT/PER HT/PER/DIR
                 (UTC) (F)     (DEG/KT/KT) (MB)    (FT/S) (FT/S/D)
BUOY 41004       2250   74 75  230/ 19/ 21 1002.2F   4/ 4   2/ 9
BUOY 41008       NOT AVBL
FOLLY BEACH CMAN 2300   76     250/  9/ 13 1003.1F
CAPERS NS BUOY   2208   73 72  230/ 17/ 21 1002.2F
FRIPP NS BUOY    2208   75 71  280/ 10/ 12 1002.7F
5E ST. MARYS GA  2221      73                N/A     2/ 9


STATION/POSITION TIME  TEMP    WIND        PRES    WAVE   SWELL
                       AIR SEA DIR/SP/G            HT/PER HT/PER/DIR
                 (UTC) (F)     (DEG/KT/KT) (MB)    (FT/S) (FT/S/D)
FRYING PAN BUOY  2300   73 72  240/ 16/ 19 1001.5F
BUOY 41025       2250   69 71   10/  6/  8 1001.6R   3/ 8   3/160/ 8
CAPE LOOKOUT NC  2300   70     250/  6/  8 1001.0R
BUOY 41002       2250   74 74  170/ 17/ 21 1004.3R   5/ 7   2/ 50/ 9
BUOY 41010       2220   74 77  220/ 19/ 23 1007.1R
ST AUGUSTINE FL  2300   70 71  230/  4/  7 1004.9R

$$




USA.gov is the U.S. government's official web portal to all federal, state and local government web resources and services.